Home   Weather   Puerto Montt   Past weeks

Flag for Chile Past Weather in Puerto Montt, Chile — Yesterday and Last 2 Weeks

Now
37 °F

Fog.


Feels Like: 37 °F
Forecast: 39 / 56 °F
Wind: 1 mph from North

Location: Puerto Montt Airport

Current Time: Sep 26, 2016 at 6:01:32 AM

Latest Report: Sep 26, 2016 at 5:00 AM


Visibility: 4 mi

Pressure: 30.07 "Hg

Humidity: 93%

Dew Point: 36 °F

Location of Puerto MonttLocation

Past Weather in Puerto Montt — Graph

°F

Puerto Montt Temperature Yesterday

Maximum temperature yesterday: 64 °F (at 3:00 PM)
Minimum temperature yesterday: 37 °F (at 2:00 AM)
Average temperature yesterday: 48 °F

High & Low Weather Summary for the Past Weeks

 TemperatureHumidityPressure
High64 °F (Sep 23, 2:00 PM)100% (Sep 11, 5:00 AM)30.42 "Hg (Sep 11, 5:00 AM)
Low32 °F (Sep 14, 6:00 AM)37% (Sep 23, 3:00 PM)29.77 "Hg (Sep 12, 4:00 AM)
Average48 °F85%30.12 "Hg
* Reported Sep 11 5:00 AM — Sep 26 5:00 AM, Puerto Montt, Weather by CustomWeather, © 2016

Note: Actual official high and low records may vary slightly from our data, if they occured in-between our weather recording intervals... More about our weather records

Advertising

Puerto Montt Weather History for the Previous 24 Hours

Scroll right to see more
 ConditionsComfort  
Time TempWeatherWind HumidityBarometerVisibility
5:00 AM
Mon, Sep 26
37 °FFog.1 mph93%30.07 "Hg4 mi
4:00 AM39 °FPassing clouds.No wind100%30.07 "HgN/A
3:00 AM43 °FPassing clouds.2 mph93%30.07 "HgN/A
2:00 AM45 °FPassing clouds.6 mph87%30.09 "HgN/A
1:00 AM45 °FPassing clouds.No wind93%30.09 "HgN/A
12:00 AM45 °FPassing clouds.5 mph87%30.09 "HgN/A
11:00 PM
Sun, Sep 25
46 °FPassing clouds.5 mph87%30.07 "HgN/A
10:00 PM46 °FPassing clouds.7 mph87%30.07 "HgN/A
9:00 PM50 °FPassing clouds.10 mph76%30.07 "HgN/A
8:00 PM52 °FPassing clouds.12 mph77%30.04 "HgN/A
7:00 PM55 °FScattered clouds.10 mph72%30.04 "HgN/A
6:00 PM59 °FScattered clouds.8 mph68%30.01 "HgN/A
5:00 PM63 °FSunny.10 mph59%29.98 "Hg10 mi
4:00 PM64 °FSunny.3 mph56%29.98 "Hg10 mi
3:00 PM64 °FSunny.5 mph46%30.01 "Hg10 mi
2:00 PM61 °FSunny.3 mph55%30.01 "Hg10 mi
1:00 PM59 °FSunny.3 mph59%30.01 "Hg10 mi
12:00 PM55 °FSunny.5 mph67%30.01 "Hg10 mi
11:00 AM52 °FSunny.5 mph82%30.01 "Hg10 mi
10:00 AM46 °FSunny.No wind87%30.01 "Hg10 mi
9:00 AM43 °FSunny.No wind87%30.01 "Hg10 mi
8:00 AM37 °FSunny.3 mph93%29.98 "Hg10 mi
7:00 AM37 °FClear.1 mph93%29.98 "Hg10 mi
6:00 AM39 °FClear.2 mph93%29.95 "Hg10 mi
Weather by CustomWeather, © 2016

See weather overviewHow to use our weather pages